Time,TemperatureF,DewpointF,PressureIn,WindDirection,WindDirectionDegrees,WindSpeedMPH,WindSpeedGustMPH,Humidity,HourlyPrecipIn,Conditions,Clouds,dailyrainin,SoftwareType,DateUTC
2013-04-04 00:03:00,51.0,-99.9,-100.00,North,-999,-999.0,-999.0,-999,0.00,,,0.00,,2013-04-04 07:03:00,
2013-04-04 00:13:00,51.0,-99.9,-100.00,North,-999,-999.0,-999.0,-999,0.00,,,0.00,,2013-04-04 07:13:00,
2013-04-04 00:22:00,51.0,-99.9,-100.00,North,-999,-999.0,-999.0,-999,0.00,,,0.00,,2013-04-04 07:22:00,
2013-04-04 00:30:00,49.0,-99.9,-100.00,North,-999,-999.0,-999.0,-999,0.00,,,0.00,,2013-04-04 07:30:00,
2013-04-04 01:03:00,49.0,-99.9,-100.00,North,-999,-999.0,-999.0,-999,0.00,,,0.00,,2013-04-04 08:03:00,
2013-04-04 01:12:00,49.0,-99.9,-100.00,North,-999,-999.0,-999.0,-999,0.00,,,0.00,,2013-04-04 08:12:00,
2013-04-04 01:23:00,49.0,-99.9,-100.00,North,-999,-999.0,-999.0,-999,0.00,,,0.00,,2013-04-04 08:23:00,
2013-04-04 02:30:00,47.0,-99.9,-100.00,North,-999,-999.0,-999.0,-999,0.00,,,0.00,,2013-04-04 09:30:00,
2013-04-04 03:05:00,47.0,-99.9,-100.00,North,-999,-999.0,-999.0,-999,0.00,,,0.00,,2013-04-04 10:05:00,
2013-04-04 03:13:00,47.0,-99.9,-100.00,North,-999,-999.0,-999.0,-999,0.00,,,0.00,,2013-04-04 10:13:00,
2013-04-04 03:25:00,47.0,-99.9,-100.00,North,-999,-999.0,-999.0,-999,0.00,,,0.00,,2013-04-04 10:25:00,
2013-04-04 03:30:00,47.0,-99.9,-100.00,North,-999,-999.0,-999.0,-999,0.00,,,0.00,,2013-04-04 10:30:00,
2013-04-04 04:03:00,47.0,-99.9,-100.00,North,-999,-999.0,-999.0,-999,0.00,,,0.00,,2013-04-04 11:03:00,
2013-04-04 04:13:00,47.0,-99.9,-100.00,North,-999,-999.0,-999.0,-999,0.00,,,0.00,,2013-04-04 11:13:00,
2013-04-04 04:23:00,47.0,-99.9,-100.00,North,-999,-999.0,-999.0,-999,0.00,,,0.00,,2013-04-04 11:23:00,
2013-04-04 04:30:00,47.0,-99.9,-100.00,North,-999,-999.0,-999.0,-999,0.00,,,0.00,,2013-04-04 11:30:00,
2013-04-04 05:03:00,47.0,-99.9,-100.00,North,-999,-999.0,-999.0,-999,0.00,,,0.00,,2013-04-04 12:03:00,
2013-04-04 05:13:00,47.0,-99.9,-100.00,North,-999,-999.0,-999.0,-999,0.00,,,0.00,,2013-04-04 12:13:00,
2013-04-04 05:23:00,47.0,-99.9,-100.00,North,-999,-999.0,-999.0,-999,0.00,,,0.00,,2013-04-04 12:23:00,
2013-04-04 06:30:00,47.0,-99.9,-100.00,North,-999,-999.0,-999.0,-999,0.00,,,0.00,,2013-04-04 13:30:00,
2013-04-04 07:05:00,47.0,-99.9,-100.00,North,-999,-999.0,-999.0,-999,0.00,,,0.00,,2013-04-04 14:05:00,
2013-04-04 07:13:00,47.0,-99.9,-100.00,North,-999,-999.0,-999.0,-999,0.00,,,0.00,,2013-04-04 14:13:00,
2013-04-04 07:22:00,47.0,-99.9,-100.00,North,-999,-999.0,-999.0,-999,0.00,,,0.00,,2013-04-04 14:22:00,
2013-04-04 07:30:00,48.0,-99.9,-100.00,North,-999,-999.0,-999.0,-999,0.02,,,0.02,,2013-04-04 14:30:00,
2013-04-04 08:03:00,48.0,-99.9,-100.00,North,-999,-999.0,-999.0,-999,0.02,,,0.02,,2013-04-04 15:03:00,
2013-04-04 08:13:00,48.0,-99.9,-100.00,North,-999,-999.0,-999.0,-999,0.02,,,0.02,,2013-04-04 15:13:00,
2013-04-04 08:24:00,48.0,-99.9,-100.00,North,-999,-999.0,-999.0,-999,0.02,,,0.02,,2013-04-04 15:24:00,
2013-04-04 08:30:00,48.0,-99.9,-100.00,North,-999,-999.0,-999.0,-999,0.05,,,0.07,,2013-04-04 15:30:00,
2013-04-04 09:04:00,48.0,-99.9,-100.00,North,-999,-999.0,-999.0,-999,0.05,,,0.07,,2013-04-04 16:04:00,
2013-04-04 09:13:00,48.0,-99.9,-100.00,North,-999,-999.0,-999.0,-999,0.05,,,0.07,,2013-04-04 16:13:00,
2013-04-04 09:25:00,48.0,-99.9,-100.00,North,-999,-999.0,-999.0,-999,0.05,,,0.07,,2013-04-04 16:25:00,
2013-04-04 09:30:00,49.0,-99.9,-100.00,North,-999,-999.0,-999.0,-999,0.01,,,0.08,,2013-04-04 16:30:00,
2013-04-04 10:04:00,49.0,-99.9,-100.00,North,-999,-999.0,-999.0,-999,0.01,,,0.08,,2013-04-04 17:04:00,
2013-04-04 10:14:00,49.0,-99.9,-100.00,North,-999,-999.0,-999.0,-999,0.01,,,0.08,,2013-04-04 17:14:00,
2013-04-04 10:23:00,49.0,-99.9,-100.00,North,-999,-999.0,-999.0,-999,0.01,,,0.08,,2013-04-04 17:23:00,
2013-04-04 10:30:00,50.0,-99.9,-100.00,North,-999,-999.0,-999.0,-999,0.02,,,0.10,,2013-04-04 17:30:00,
2013-04-04 11:03:00,50.0,-99.9,-100.00,North,-999,-999.0,-999.0,-999,0.02,,,0.10,,2013-04-04 18:03:00,
2013-04-04 11:13:00,50.0,-99.9,-100.00,North,-999,-999.0,-999.0,-999,0.02,,,0.10,,2013-04-04 18:13:00,
2013-04-04 11:23:00,50.0,-99.9,-100.00,North,-999,-999.0,-999.0,-999,0.02,,,0.10,,2013-04-04 18:23:00,
2013-04-04 11:30:00,51.0,-99.9,-100.00,North,-999,-999.0,-999.0,-999,0.03,,,0.13,,2013-04-04 18:30:00,
2013-04-04 12:02:00,51.0,-99.9,-100.00,North,-999,-999.0,-999.0,-999,0.03,,,0.13,,2013-04-04 19:02:00,
2013-04-04 12:13:00,51.0,-99.9,-100.00,North,-999,-999.0,-999.0,-999,0.03,,,0.13,,2013-04-04 19:13:00,
2013-04-04 12:22:00,51.0,-99.9,-100.00,North,-999,-999.0,-999.0,-999,0.03,,,0.13,,2013-04-04 19:22:00,
2013-04-04 12:30:00,52.0,-99.9,-100.00,North,-999,-999.0,-999.0,-999,0.03,,,0.16,,2013-04-04 19:30:00,
2013-04-04 13:04:00,52.0,-99.9,-100.00,North,-999,-999.0,-999.0,-999,0.03,,,0.16,,2013-04-04 20:04:00,
2013-04-04 13:13:00,52.0,-99.9,-100.00,North,-999,-999.0,-999.0,-999,0.03,,,0.16,,2013-04-04 20:13:00,
2013-04-04 13:23:00,52.0,-99.9,-100.00,North,-999,-999.0,-999.0,-999,0.03,,,0.16,,2013-04-04 20:23:00,
2013-04-04 13:30:00,53.0,-99.9,-100.00,North,-999,-999.0,-999.0,-999,0.04,,,0.20,,2013-04-04 20:30:00,
2013-04-04 14:03:00,53.0,-99.9,-100.00,North,-999,-999.0,-999.0,-999,0.04,,,0.20,,2013-04-04 21:03:00,
2013-04-04 14:12:00,53.0,-99.9,-100.00,North,-999,-999.0,-999.0,-999,0.04,,,0.20,,2013-04-04 21:12:00,
2013-04-04 14:23:00,53.0,-99.9,-100.00,North,-999,-999.0,-999.0,-999,0.04,,,0.20,,2013-04-04 21:23:00,
2013-04-04 14:30:00,52.0,-99.9,-100.00,North,-999,-999.0,-999.0,-999,0.06,,,0.26,,2013-04-04 21:30:00,
2013-04-04 15:04:00,52.0,-99.9,-100.00,North,-999,-999.0,-999.0,-999,0.06,,,0.26,,2013-04-04 22:04:00,
2013-04-04 15:13:00,52.0,-99.9,-100.00,North,-999,-999.0,-999.0,-999,0.06,,,0.26,,2013-04-04 22:13:00,
2013-04-04 15:23:00,52.0,-99.9,-100.00,North,-999,-999.0,-999.0,-999,0.06,,,0.26,,2013-04-04 22:23:00,
2013-04-04 15:30:00,52.0,-99.9,-100.00,North,-999,-999.0,-999.0,-999,0.08,,,0.34,,2013-04-04 22:30:00,
2013-04-04 16:03:00,52.0,-99.9,-100.00,North,-999,-999.0,-999.0,-999,0.08,,,0.34,,2013-04-04 23:03:00,
2013-04-04 16:13:00,52.0,-99.9,-100.00,North,-999,-999.0,-999.0,-999,0.08,,,0.34,,2013-04-04 23:13:00,
2013-04-04 16:22:00,52.0,-99.9,-100.00,North,-999,-999.0,-999.0,-999,0.08,,,0.34,,2013-04-04 23:22:00,
2013-04-04 16:30:00,52.0,-99.9,-100.00,North,-999,-999.0,-999.0,-999,0.10,,,0.44,,2013-04-04 23:30:00,
2013-04-04 17:03:00,52.0,-99.9,-100.00,North,-999,-999.0,-999.0,-999,0.10,,,0.44,,2013-04-05 00:03:00,
2013-04-04 17:12:00,52.0,-99.9,-100.00,North,-999,-999.0,-999.0,-999,0.10,,,0.44,,2013-04-05 00:12:00,
2013-04-04 17:22:00,52.0,-99.9,-100.00,North,-999,-999.0,-999.0,-999,0.10,,,0.44,,2013-04-05 00:22:00,
2013-04-04 17:30:00,52.0,-99.9,-100.00,North,-999,-999.0,-999.0,-999,0.05,,,0.49,,2013-04-05 00:30:00,
2013-04-04 18:03:00,52.0,-99.9,-100.00,North,-999,-999.0,-999.0,-999,0.05,,,0.49,,2013-04-05 01:03:00,
2013-04-04 18:12:00,52.0,-99.9,-100.00,North,-999,-999.0,-999.0,-999,0.05,,,0.49,,2013-04-05 01:12:00,
2013-04-04 18:23:00,52.0,-99.9,-100.00,North,-999,-999.0,-999.0,-999,0.05,,,0.49,,2013-04-05 01:23:00,
2013-04-04 18:30:00,52.0,-99.9,-100.00,North,-999,-999.0,-999.0,-999,0.01,,,0.50,,2013-04-05 01:30:00,
2013-04-04 19:03:00,52.0,-99.9,-100.00,North,-999,-999.0,-999.0,-999,0.01,,,0.50,,2013-04-05 02:03:00,
2013-04-04 19:12:00,52.0,-99.9,-100.00,North,-999,-999.0,-999.0,-999,0.01,,,0.50,,2013-04-05 02:12:00,
2013-04-04 19:22:00,52.0,-99.9,-100.00,North,-999,-999.0,-999.0,-999,0.01,,,0.50,,2013-04-05 02:22:00,
2013-04-04 19:30:00,51.0,-99.9,-100.00,North,-999,-999.0,-999.0,-999,0.02,,,0.52,,2013-04-05 02:30:00,
2013-04-04 20:02:00,51.0,-99.9,-100.00,North,-999,-999.0,-999.0,-999,0.02,,,0.52,,2013-04-05 03:02:00,
2013-04-04 20:22:00,51.0,-99.9,-100.00,North,-999,-999.0,-999.0,-999,0.02,,,0.52,,2013-04-05 03:22:00,
2013-04-04 20:30:00,51.0,-99.9,-100.00,North,-999,-999.0,-999.0,-999,0.01,,,0.53,,2013-04-05 03:30:00,
2013-04-04 21:03:00,51.0,-99.9,-100.00,North,-999,-999.0,-999.0,-999,0.01,,,0.53,,2013-04-05 04:03:00,
2013-04-04 21:13:00,51.0,-99.9,-100.00,North,-999,-999.0,-999.0,-999,0.01,,,0.53,,2013-04-05 04:13:00,
2013-04-04 21:23:00,51.0,-99.9,-100.00,North,-999,-999.0,-999.0,-999,0.01,,,0.53,,2013-04-05 04:23:00,
2013-04-04 21:30:00,51.0,-99.9,-100.00,North,-999,-999.0,-999.0,-999,0.03,,,0.56,,2013-04-05 04:30:00,
2013-04-04 22:03:00,51.0,-99.9,-100.00,North,-999,-999.0,-999.0,-999,0.03,,,0.56,,2013-04-05 05:03:00,
2013-04-04 22:14:00,51.0,-99.9,-100.00,North,-999,-999.0,-999.0,-999,0.03,,,0.56,,2013-04-05 05:14:00,
2013-04-04 22:22:00,51.0,-99.9,-100.00,North,-999,-999.0,-999.0,-999,0.03,,,0.56,,2013-04-05 05:22:00,
2013-04-04 22:30:00,50.0,-99.9,-100.00,North,-999,-999.0,-999.0,-999,0.03,,,0.59,,2013-04-05 05:30:00,
2013-04-04 23:03:00,50.0,-99.9,-100.00,North,-999,-999.0,-999.0,-999,0.03,,,0.59,,2013-04-05 06:03:00,
2013-04-04 23:12:00,50.0,-99.9,-100.00,North,-999,-999.0,-999.0,-999,0.03,,,0.59,,2013-04-05 06:12:00,
2013-04-04 23:22:00,50.0,-99.9,-100.00,North,-999,-999.0,-999.0,-999,0.03,,,0.59,,2013-04-05 06:22:00,